Preview of NWS' New Version of Forecast
This preview is not operational and should not be used for support decisions.

Regional Weather Roundup (RWR)

Issued by National Weather Service (NWS)

                            
000
ASUS46 KSEW 202310
RWRWA 

WASHINGTON REGIONAL WEATHER ROUNDUP
NATIONAL WEATHER SERVICE SEATTLE WA
400 PM PDT TUE AUG 20 2019

NOTE:"FAIR" INDICATES FEW OR NO CLOUDS BELOW 12,000 FEET WITH NO 
SIGNIFICANT WEATHER AND/OR OBSTRUCTIONS TO VISIBILITY.

WAZ507-509-555>559-210000-
SEATTLE, TACOMA, EVERETT, AND VICINITY
  
CITY           SKY/WX    TMP DP  RH WIND       PRES   REMARKS
EVERETT        PTSUNNY   80  52  37 S10       29.91F                  
BOEING FIELD   PTSUNNY   80  54  40 VRB3      29.89F                  
RENTON         PTSUNNY   81  56  42 S9        29.89F                  
SEATAC AIRPORT PTSUNNY   80  56  43 S7        29.92F                  
JBLM-MCCHORD   PTSUNNY   82  63  53 W6        29.90F                  
PUYALLUP       FAIR      84  57  39 CALM      29.91S                  
BREMERTON      PTSUNNY   79  58  48 SW13      29.91S                  
JBLM-FT LEWIS  NOT AVBL                                               
TACOMA NARROWS PTSUNNY   79  57  46 NW7       29.90F                  
$$
 
WAZ001-503-506-510-514-515-210000-
NORTH INTERIOR
  
CITY           SKY/WX    TMP DP  RH WIND       PRES   REMARKS
BELLINGHAM     PTSUNNY   76  55  48 S6        29.88F                  
FRIDAY HARBOR  CLOUDY    73  52  47 SE3       29.90F                  
EASTSOUND      CLOUDY    68  55  64 N3        29.88F                  
PORT ANGELES   CLOUDY    67  51  56 N3        29.92S                  
EDIZ HOOK      FAIR      62  51  69 CALM      29.91S                  
PORT TOWNSEND  FAIR      72  55  56 W6        29.88F                  
NAS WHIDBEY    PTSUNNY   70  53  54 NW5       29.93F                  
ARLINGTON      PTSUNNY   81  54  39 S9        29.89F                  
BURLINGTON     SUNNY     84  57  39 CALM      29.88F                  
$$
 
WAZ020-022-039-040-504-511-512-210000-
SOUTHWEST INTERIOR
  
CITY           SKY/WX    TMP DP  RH WIND       PRES   REMARKS
SHELTON        CLOUDY    81  57  43 SW10      29.89F                  
OLYMPIA        CLOUDY    82  55  39 S12       29.90S                  
CHEHALIS       FAIR      86  59  39 SW6       29.90S                  
KELSO          CLOUDY    78  62  57 W8        29.92S                  
VANCOUVER      CLOUDY    84  55  36 VRB6      29.89F                  
SCAPPOOSE, OR  CLOUDY    82  58  43 NE3       29.89F                  
PORTLAND, OR   PTSUNNY   85  55  35 S12       29.89F                  
$$
 
WAZ021-516-517-210000-
WASHINGTON COAST
  
CITY           SKY/WX    TMP DP  RH WIND       PRES   REMARKS
FORKS          CLOUDY    67  52  58 S10       29.93F                  
HOQUIAM        CLOUDY    69  57  65 W13       29.96S                  
ASTORIA, OR    CLOUDY    67  58  72 SW15G23   29.96S                  
$$
 
WAZ019-023-024-040-567>569-210000-
CASCADE MOUNTAINS AND COLUMBIA GORGE
  
CITY           SKY/WX    TMP DP  RH WIND       PRES   REMARKS
STAMPEDE PASS  CLOUDY    70  53  54 SW6       30.04F                  
TROUTDALE, OR  PTSUNNY   85  56  37 W3        29.89F                  
HOOD RIVER, OR NOT AVBL                                               
THE DALLES, OR PTSUNNY   93  56  28 NW9       29.82F HX  91           
$$

WAZ026-027-041>044-520-521-210000-
EAST SLOPES
  
CITY           SKY/WX    TMP DP  RH WIND       PRES   REMARKS
OMAK           PTSUNNY   93  43  17 VRB5      29.87F                  
WENATCHEE      PTSUNNY   87  47  24 E7        29.86F                  
ELLENSBURG     PTSUNNY   92  45  19 SE8       29.88F                  
YAKIMA         MOSUNNY   90  48  23 SE10      29.86F                  
SUNNYSIDE ARPT PTCLDY    92  55  29 SE3       29.84F HX  90           
YAKIMA TC      FAIR      92  44  18 S10       29.85F                  
$$

WAZ028-034-035-210000-
COLUMBIA BASIN
  
CITY           SKY/WX    TMP DP  RH WIND       PRES   REMARKS
EPHRATA        PTSUNNY   92  39  15 VRB7      29.87F                  
MOSES LAKE     PTSUNNY   94  42  16 SW6       29.88F HX  90           
PASCO          PTSUNNY   96  46  18 NW8       29.82F HX  92           
RICHLAND ARPT  MOCLDY    95  48  19 CALM      29.83  HX  91           
HERMISTON, OR  MOSUNNY   94  51  23 CALM      29.83F HX  91           
$$

WAZ036>038-210000-
NORTHEAST WASHINGTON
  
CITY           SKY/WX    TMP DP  RH WIND       PRES   REMARKS
SPOKANE GEIGER PTSUNNY   92  42  17 N5        29.94F                  
SPOKANE FELTS  SUNNY     93  38  14 W3        29.92F                  
FAIRCHILD AFB  SUNNY     89  40  17 W3        29.95F                  
COEURDALENE,ID SUNNY     89  43  20 CALM      29.96F                  
DEER PARK      SUNNY     89  43  20 S5        29.95F                  
$$

WAZ029>033-210000-
SOUTHEAST WASHINGTON
  
CITY           SKY/WX    TMP DP  RH WIND       PRES   REMARKS
PULLMAN        SUNNY     94  38  14 N5        29.94F                  
LEWISTON, ID   SUNNY     99  40  13 NE7       29.83F HX  94           
WALLA WALLA    SUNNY     95  51  22 S10       29.84F HX  92           
PENDLETON, OR  MOSUNNY   95  41  15 N13G20    29.86F HX  91           
$$